Weather History for Fort Myers, FL

Change the Weather History Date:

Friday, January 13, 2012

  Actual Average Record
Temperature  
Mean Temperature 63 °F 64 °F  
Max Temperature 73 °F 74 °F 86 °F (1989)
Min Temperature 53 °F 53 °F 28 °F (1981)
Degree Days  
Heating Degree Days 2 4  
Month to date heating degree days 53 52  
Since 1 July heating degree days 81 145  
Cooling Degree Days 0 2  
Month to date cooling degree days 19 38  
Year to date cooling degree days 19 38  
Growing Degree Days 13 (Base 50)    
Moisture  
Dew Point 53 °F    
Average Humidity 68    
Maximum Humidity 93    
Minimum Humidity 44    
Precipitation  
Precipitation 0.00 in 0.06 in 1.95 in (1948)
Month to date precipitation T 0.82  
Year to date precipitation T 0.82  
Sea Level Pressure  
Sea Level Pressure 30.12 in    
Wind  
Wind Speed 7 mph (NNW)    
Max Wind Speed 16 mph    
Max Gust Speed 21 mph    
Visibility 10 miles    
Events      
T = Trace of Precipitation, MM = Missing Value Source: NWS Daily Summary

Daily Weather History Graph

Daily Weather History Graph

Search for Another Location

Airport:

Trip Planner

Search our weather history database for the weather conditions in past years. The results will help you decide how hot, cold, wet, or windy it might be!

Date:

Astronomy

Jan. 13, 2012 Rise Set
Actual Time 7:17 AM EST 5:54 PM EST
Civil Twilight 6:52 AM EST 6:19 PM EST
Nautical Twilight 6:23 AM EST 6:48 PM EST
Astronomical Twilight 5:55 AM EST 7:16 PM EST
Moon 10:31 PM EST (1/13) 10:01 AM EST (1/13)
Length of Visible Light 11h 27m
Length of Day
10h 37m
Waning Gibbous, 79% of the Moon is Illuminated
Jan 13
Waning Gibbous
Jan 16
Last Quarter
Jan 23
New
Jan 30
First Quarter
Feb 7
Full

Hourly Weather History & Observations

Time (EST) Temp. Dew Point Humidity Pressure Visibility Wind Dir Wind Speed Gust Speed Precip Events Conditions
12:53 AM 64.9 °F 63.0 °F 93% 30.01 in 10.0 mi SSW 3.5 mph - N/A   Clear
1:53 AM 64.9 °F 62.1 °F 90% 30.02 in 10.0 mi Calm Calm - N/A   Partly Cloudy
2:53 AM 63.0 °F 61.0 °F 93% 30.02 in 10.0 mi Calm Calm - N/A   Scattered Clouds
3:53 AM 64.0 °F 61.0 °F 90% 30.02 in 10.0 mi South 3.5 mph - N/A   Partly Cloudy
4:53 AM 66.0 °F 62.1 °F 87% 30.05 in 10.0 mi NW 5.8 mph - N/A   Mostly Cloudy
5:53 AM 64.9 °F 61.0 °F 87% 30.08 in 10.0 mi NW 8.1 mph - N/A   Mostly Cloudy
6:11 AM 64.4 °F 60.8 °F 88% 30.09 in 10.0 mi NW 8.1 mph - N/A   Overcast
6:53 AM 64.0 °F 59.0 °F 84% 30.09 in 10.0 mi North 6.9 mph - N/A   Mostly Cloudy
7:49 AM 62.6 °F 55.4 °F 77% 30.11 in 10.0 mi North 10.4 mph - N/A   Mostly Cloudy
7:53 AM 62.1 °F 55.9 °F 80% 30.12 in 10.0 mi North 9.2 mph - N/A   Mostly Cloudy
8:11 AM 62.6 °F 55.4 °F 77% 30.11 in 10.0 mi North 13.8 mph - N/A   Partly Cloudy
8:53 AM 63.0 °F 52.0 °F 67% 30.14 in 10.0 mi North 11.5 mph - N/A   Clear
9:53 AM 64.0 °F 51.1 °F 63% 30.17 in 10.0 mi NNE 11.5 mph - N/A   Clear
10:53 AM 66.0 °F 48.0 °F 52% 30.17 in 10.0 mi NNE 10.4 mph - N/A   Clear
11:53 AM 69.1 °F 48.9 °F 49% 30.14 in 10.0 mi North 10.4 mph - N/A   Clear
12:53 PM 70.0 °F 48.9 °F 47% 30.12 in 10.0 mi NW 8.1 mph - N/A   Clear
1:53 PM 71.1 °F 48.9 °F 45% 30.12 in 10.0 mi NNW 8.1 mph - N/A   Overcast
2:53 PM 70.0 °F 48.0 °F 46% 30.12 in 10.0 mi NW 8.1 mph - N/A   Mostly Cloudy
3:53 PM 69.1 °F 48.0 °F 47% 30.12 in 10.0 mi WNW 10.4 mph - N/A   Partly Cloudy
4:53 PM 66.0 °F 50.0 °F 56% 30.12 in 10.0 mi WNW 8.1 mph - N/A   Partly Cloudy
5:53 PM 64.0 °F 51.1 °F 63% 30.15 in 10.0 mi WNW 9.2 mph - N/A   Mostly Cloudy
6:53 PM 63.0 °F 48.9 °F 60% 30.17 in 10.0 mi NNW 9.2 mph - N/A   Mostly Cloudy
7:53 PM 62.1 °F 45.0 °F 53% 30.18 in 10.0 mi NNW 6.9 mph - N/A   Mostly Cloudy
8:53 PM 60.1 °F 44.1 °F 55% 30.20 in 10.0 mi North 6.9 mph - N/A   Mostly Cloudy
10:53 PM 55.9 °F 39.9 °F 55% 30.23 in 10.0 mi NNW 8.1 mph - N/A   Scattered Clouds
11:53 PM 54.0 °F 41.0 °F 62% 30.24 in 10.0 mi North 6.9 mph - N/A   Scattered Clouds